Zurück zum Katalog

STARLINK-31192

AktivKommunikationVLEO
NORAD 58794·PAYLOAD·🇺🇸 United States

Gestartet Jan 15, 2024 von Cape Canaveral Space Force Station

Loading…

Nächste Überflüge (nächste 24 Stunden)

TLE

AktuellSource: CelesTrak SupGP

Epoche: Sep 15, 2026, 02:00 UTC

1 58794C 24012H   26258.08381944 -.00036458  00000+0 -13206-2 0  2581
2 58794  42.9997 175.9742 0001309 272.9275 226.8750 15.27594529    17

Verfolge STARLINK-31192 in Echtzeit mit AllMySat

Download on the App Store